Weather History for Entrance, BC

Change the Weather History Date:

Wednesday, December 12, 2012

  Actual Average Record
Temperature  
Mean Temperature 42 °F -  
Max Temperature 43 °F - - ()
Min Temperature 41 °F - - ()
Degree Days  
Heating Degree Days 23    
Moisture  
Dew Point -    
Average Humidity    
Maximum Humidity    
Minimum Humidity    
Precipitation  
Precipitation 0.04 in - - ()
Sea Level Pressure  
Sea Level Pressure 29.81 in    
Wind  
Wind Speed 14 mph ()    
Max Wind Speed 22 mph    
Max Gust Speed -    
T = Trace of Precipitation, MM = Missing Value Source: Averaged Metar Reports

Daily Weather History Graph

Daily Weather History Graph

Search for Another Location

Airport:

Trip Planner

Search our weather history database for the weather conditions in past years. The results will help you decide how hot, cold, wet, or windy it might be!

Date:

Astronomy

Dec. 12, 2012 Rise Set
Actual Time 8:01 AM PST 4:16 PM PST
Civil Twilight 7:24 AM PST 4:54 PM PST
Nautical Twilight 6:43 AM PST 5:35 PM PST
Astronomical Twilight 6:04 AM PST 6:13 PM PST
Moon 7:10 AM PST (12/12) 4:01 PM PST (12/12)
Length of Visible Light 9h 30m
Length of Day
8h 15m
Waning Crescent, 0% of the Moon is Illuminated
Dec 12
Waning Crescent
Dec 13
New
Dec 19
First Quarter
Dec 28
Full
Jan 4
Last Quarter

Hourly Weather History & Observations

Time (PST) Temp. Windchill Dew Point Humidity Pressure Visibility Wind Dir Wind Speed Gust Speed Precip Events Conditions
12:00 AM 42.4 °F 36.5 °F - N/A% 29.60 in - North 10.4 mph - 0.01 in   Unknown
1:00 AM 42.3 °F 35.5 °F - N/A% 29.60 in - NNW 12.7 mph - 0.02 in   Unknown
2:00 AM 42.4 °F 34.1 °F - N/A% 29.62 in - WNW 18.4 mph - 0.01 in   Unknown
3:00 AM 42.6 °F 34.9 °F - N/A% 29.64 in - WNW 16.1 mph - N/A   Unknown
4:00 AM 43 °F - - % 29.65 in - WNW 19.6 mph - -  
4:00 AM 43.0 °F 34.5 °F - N/A% 29.65 in - WNW 19.6 mph - N/A   Unknown
5:00 AM 43.0 °F 34.8 °F - N/A% 29.66 in - NW 18.4 mph - N/A   Unknown
6:00 AM 43.0 °F 34.5 °F - N/A% 29.68 in - NW 19.6 mph - N/A   Unknown
7:00 AM 42.8 °F 34.5 °F - N/A% 29.70 in - NW 18.4 mph - N/A   Unknown
8:00 AM 43.3 °F 36.1 °F - N/A% 29.73 in - NNW 15.0 mph - N/A   Unknown
9:00 AM 43.3 °F 34.5 °F - N/A% 29.77 in - NNW 21.9 mph - N/A   Unknown
10:00 AM 43 °F - - % 29.81 in - NNW 19.6 mph - -  
10:00 AM 43.0 °F 34.5 °F - N/A% 29.81 in - NNW 19.6 mph - N/A   Unknown
11:00 AM 43.0 °F 34.5 °F - N/A% 29.83 in - NNW 19.6 mph - N/A   Unknown
12:00 PM 43.3 °F 34.7 °F - N/A% 29.83 in - NW 20.7 mph - N/A   Unknown
1:00 PM 43.2 °F 35.6 °F - N/A% 29.84 in - NW 16.1 mph - N/A   Unknown
2:00 PM 43.3 °F 35.5 °F - N/A% 29.86 in - NNW 17.3 mph - N/A   Unknown
3:00 PM 43.2 °F 35.0 °F - N/A% 29.88 in - NNW 18.4 mph - N/A   Unknown
4:00 PM 43 °F - - % 29.90 in - NNW 17.3 mph - -  
4:00 PM 43.3 °F 35.5 °F - N/A% 29.90 in - NNW 17.3 mph - N/A   Unknown
5:00 PM 43.2 °F 35.0 °F - N/A% 29.92 in - NNW 18.4 mph - N/A   Unknown
6:00 PM 43.0 °F 35.7 °F - N/A% 29.93 in - NNW 15.0 mph - N/A   Unknown
7:00 PM 42.8 °F 35.8 °F - N/A% 29.94 in - North 13.8 mph - N/A   Unknown
8:00 PM 42.6 °F 36.3 °F - N/A% 29.96 in - North 11.5 mph - N/A   Unknown
9:00 PM 41.9 °F 36.3 °F - N/A% 29.98 in - North 9.2 mph - N/A   Unknown
10:00 PM 42 °F - - % 30.00 in - NNE 5.8 mph - -  
10:00 PM 41.7 °F 38.0 °F - N/A% 30.00 in - NNE 5.8 mph - N/A   Unknown
11:00 PM 42.1 °F 40.2 °F - N/A% 30.00 in - NNE 3.5 mph - N/A   Unknown